Content
SEND FEEDBACK

Daily
Averages
Monthly
Summary
United States of America

ANN ARBOR, MICHIGAN


Home > North America > United States > Michigan
Elevation: 759 feet     Latitude: 42 17N     Longitude: 083 43W

WEATHER
 
SELECT A DAY
Number of Records: 203,415;   Date Range: 1/1/95 - 7/29/14
 
SHARE

PRINT THIS DATA

[ ← Previous Day ]
WEATHER ALMANAC - NOVEMBER 12, 2013
[ Next Day → ]
[ °C ]   °F
Weather ElementAverageHighLow
Temperature27.2 °F33.1 °F (1:53 pm)16 °F (11:53 pm)
Dewpoint16.5 °F19.9 °F (12:53 am)12.9 °F (11:53 pm)
Humidity65.3 %88 % (11:53 pm)46 % (2:53 pm)
Barometer30.50 in30.56 in (9:53 pm)30.34 in (12:53 am)
Wind Speed10.8 mph17.3 mph (2:53 pm)
Wind Gust24.2 mph (2:53 pm)
Weather ElementAverage
Visibility10 mi
Wind DirectionNW (319.6 °)

Weather ElementTotal
Precipitation---
Heating Degree Days40.5 (Base 65)
Averaged from 24 records on November 12, 2013
WEATHER CONDITIONS BREAKOUT
WIND DIRECTION BREAKOUT
WEATHER BY HOUR - NOVEMBER 12, 2013
[ °C ]   °F
Local TimeTemperatureDewpointHumidityBarometerVisibilityWind DirectionWind SpeedGust SpeedPrecipitationEventsConditions
12:53 AM27.0 °F19.9 °F75 %30.34 in10.0 miNNW (330°)10.4 mphScattered Clouds
1:53 AM27.0 °F18.0 °F69 %30.36 in10.0 miNNW (330°)15.0 mph23.0 mphPartly Cloudy
2:53 AM25.0 °F14.0 °F63 %30.39 in10.0 miNorth (350°)13.8 mph21.9 mphClear
3:53 AM24.1 °F16.0 °F71 %30.40 in10.0 miNNW (340°)11.5 mphClear
4:53 AM23.0 °F17.1 °F78 %30.43 in10.0 miNNW (330°)9.2 mphClear
5:53 AM24.1 °F17.1 °F75 %30.45 in10.0 miNorth (350°)10.4 mphClear
6:53 AM24.1 °F17.1 °F75 %30.48 in10.0 miNorth (350°)8.1 mphClear
7:53 AM24.1 °F18.0 °F77 %30.52 in10.0 miNNW (340°)9.2 mphClear
8:53 AM26.1 °F19.0 °F75 %30.54 in10.0 miNNW (330°)12.7 mphClear
9:53 AM28.0 °F19.9 °F72 %30.53 in10.0 miNNW (340°)12.7 mph19.6 mphClear
10:53 AM30.0 °F19.9 °F66 %30.55 in10.0 miNorth (360°)11.5 mph23.0 mphClear
11:53 AM32.0 °F19.0 °F59 %30.55 in10.0 miNorth (350°)12.7 mph21.9 mphPartly Cloudy
12:53 PM32.0 °F18.0 °F56 %30.54 in10.0 miNNW (340°)16.1 mph20.7 mphMostly Cloudy
1:53 PM33.1 °F18.0 °F54 %30.53 in10.0 miNW (320°)13.8 mph21.9 mphOvercast
2:53 PM33.1 °F14.0 °F46 %30.53 in10.0 miNW (320°)17.3 mph24.2 mphScattered Clouds
3:53 PM30.9 °F15.1 °F52 %30.54 in10.0 miNW (320°)12.7 mphClear
4:53 PM32.0 °F15.1 °F50 %30.53 in10.0 miNW (310°)9.2 mph23.0 mphMostly Cloudy
5:53 PM30.0 °F15.1 °F54 %30.52 in10.0 miWNW (300°)9.2 mphScattered Clouds
6:53 PM30.0 °F15.1 °F54 %30.53 in10.0 miWNW (300°)10.4 mphMostly Cloudy
7:53 PM30.0 °F15.1 °F54 %30.55 in10.0 miWNW (300°)10.4 mphOvercast
8:53 PM27.0 °F14.0 °F58 %30.55 in10.0 miWNW (290°)9.2 mphScattered Clouds
9:53 PM24.1 °F14.0 °F65 %30.56 in10.0 miWNW (290°)4.6 mphClear
10:53 PM19.0 °F14.0 °F81 %30.56 in10.0 miWSW (240°)4.6 mphClear
11:53 PM16.0 °F12.9 °F88 %30.56 in10.0 miWSW (240°)3.5 mphClear
Hourly data recorded from KARB, located miles away from Ann Arbor, Michigan







STORIES FROM OUR PARTNERS